• In Netherlands
  • List of Countries
  • For 7 days
  • Water Temperature
  • Satellite Maps
  • Weather Map
  • Weather Widgets
  • user-avatar
    Login

    Hourly Weather Igls

    Today, 29 March, Wednesday

    Time Temperature Precipitation Wind Pressure Humidity
    00:00 +8°C° 0 mm 1 mps 689 mmHg 95%
    01:00 +8°C° 0 mm 1 mps 689 mmHg 95%
    02:00 +8°C° 0 mm 1 mps 689 mmHg 95%
    03:00 +7°C° 0 mm 2 mps 689 mmHg 96%
    04:00 +6°C° 0 mm 2 mps 689 mmHg 96%
    05:00 +8°C° 0 mm 1 mps 690 mmHg 96%
    06:00 +8°C° 0 mm 1 mps 690 mmHg 95%
    07:00 +8°C° 0 mm 1 mps 690 mmHg 95%
    08:00 +9°C° 0 mm 1 mps 690 mmHg 89%
    09:00 +11°C° 0 mm 1 mps 690 mmHg 83%
    10:00 +13°C° 0 mm 1 mps 691 mmHg 76%
    11:00 +14°C° 0 mm 1 mps 691 mmHg 73%
    12:00 +14°C° 0 mm 1 mps 690 mmHg 70%
    13:00 +15°C° 0 mm 1 mps 690 mmHg 67%
    14:00 +15°C° 0 mm 1 mps 690 mmHg 69%
    15:00 +15°C° 0 mm 1 mps 690 mmHg 71%
    16:00 +14°C° 0 mm 1 mps 690 mmHg 72%
    17:00 +13°C° 0 mm 1 mps 690 mmHg 80%
    18:00 +11°C° 0 mm 1 mps 689 mmHg 87%
    19:00 +9°C° 0 mm 1 mps 689 mmHg 94%
    20:00 +9°C° 0 mm 1 mps 690 mmHg 95%
    21:00 +9°C° 0 mm 1 mps 690 mmHg 95%
    22:00 +8°C° 0 mm 1 mps 690 mmHg 96%
    23:00 +8°C° 0 mm 1 mps 690 mmHg 96%

    Tomorrow, 30 March, Thursday

    Time Temperature Precipitation Wind Pressure Humidity
    00:00 +7°C° 0 mm 1 mps 690 mmHg 97%
    01:00 +6°C° 0 mm 1 mps 690 mmHg 97%
    02:00 +6°C° 0 mm 1 mps 690 mmHg 96%
    03:00 +5°C° 0 mm 1 mps 690 mmHg 96%
    04:00 +5°C° 0 mm 1 mps 689 mmHg 95%
    05:00 +6°C° 0 mm 1 mps 690 mmHg 92%
    06:00 +5°C° 0 mm 0 mps 690 mmHg 89%
    07:00 +6°C° 0 mm 0 mps 690 mmHg 86%
    08:00 +10°C° 0 mm 1 mps 691 mmHg 77%
    09:00 +12°C° 0 mm 1 mps 691 mmHg 68%
    10:00 +15°C° 0 mm 1 mps 691 mmHg 60%
    11:00 +15°C° 0 mm 1 mps 691 mmHg 58%
    12:00 +16°C° 0 mm 1 mps 691 mmHg 56%
    13:00 +18°C° 0 mm 1 mps 691 mmHg 54%
    14:00 +18°C° 0 mm 1 mps 691 mmHg 56%
    15:00 +18°C° 0 mm 1 mps 690 mmHg 59%
    16:00 +16°C° 0 mm 1 mps 690 mmHg 61%
    17:00 +13°C° 0 mm 1 mps 689 mmHg 71%
    18:00 +10°C° 0 mm 1 mps 689 mmHg 81%
    19:00 +8°C° 0 mm 1 mps 688 mmHg 91%
    20:00 +8°C° 0 mm 1 mps 688 mmHg 91%
    21:00 +8°C° 0 mm 1 mps 689 mmHg 91%
    22:00 +8°C° 0 mm 1 mps 689 mmHg 90%
    23:00 +7°C° 0 mm 2 mps 689 mmHg 90%

    Day after tomorrow, 31 March, Friday

    Time Temperature Precipitation Wind Pressure Humidity
    00:00 +7°C° 0 mm 2 mps 689 mmHg 90%
    01:00 +6°C° 0 mm 2 mps 689 mmHg 91%
    02:00 +6°C° 0 mm 2 mps 688 mmHg 91%
    03:00 +6°C° 0 mm 2 mps 688 mmHg 92%
    04:00 +6°C° 0 mm 2 mps 688 mmHg 92%
    05:00 +7°C° 0 mm 2 mps 688 mmHg 91%
    06:00 +7°C° 0 mm 2 mps 688 mmHg 90%
    07:00 +7°C° 0 mm 2 mps 688 mmHg 89%
    08:00 +10°C° 0 mm 2 mps 688 mmHg 80%
    09:00 +13°C° 0 mm 2 mps 688 mmHg 71%
    10:00 +16°C° 0 mm 2 mps 688 mmHg 61%
    11:00 +17°C° 0 mm 2 mps 687 mmHg 58%
    12:00 +18°C° 0 mm 2 mps 687 mmHg 54%
    13:00 +19°C° 0 mm 2 mps 687 mmHg 50%
    14:00 +18°C° 0 mm 2 mps 686 mmHg 53%
    15:00 +18°C° 0 mm 2 mps 686 mmHg 55%
    16:00 +17°C° 0 mm 2 mps 685 mmHg 57%
    17:00 +15°C° 0.1 mm 2 mps 685 mmHg 69%
    18:00 +12°C° 0.1 mm 1 mps 684 mmHg 81%
    19:00 +9°C° 0.1 mm 1 mps 683 mmHg 93%
    20:00 +8°C° 0.1 mm 2 mps 684 mmHg 93%
    21:00 +8°C° 0.1 mm 2 mps 684 mmHg 93%
    22:00 +8°C° 0.1 mm 2 mps 684 mmHg 93%
    23:00 +7°C° 0 mm 2 mps 684 mmHg 92%

    1 April, Saturday

    Time Temperature Precipitation Wind Pressure Humidity
    00:00 +7°C° 0 mm 2 mps 684 mmHg 92%
    01:00 +7°C° 0 mm 2 mps 683 mmHg 92%
    02:00 +6°C° 0 mm 2 mps 683 mmHg 92%
    03:00 +6°C° 0 mm 2 mps 683 mmHg 92%
    04:00 +6°C° 0 mm 2 mps 682 mmHg 92%
    05:00 +6°C° 0 mm 2 mps 682 mmHg 90%
    06:00 +6°C° 0 mm 2 mps 682 mmHg 89%
    07:00 +7°C° 0 mm 2 mps 682 mmHg 87%
    08:00 +9°C° 0 mm 2 mps 682 mmHg 78%
    09:00 +12°C° 0 mm 2 mps 682 mmHg 69%
    10:00 +14°C° 0 mm 1 mps 683 mmHg 60%
    11:00 +15°C° 0 mm 2 mps 682 mmHg 57%
    12:00 +16°C° 0 mm 2 mps 682 mmHg 54%
    13:00 +17°C° 0 mm 2 mps 682 mmHg 52%
    14:00 +16°C° 0.3 mm 2 mps 682 mmHg 56%
    15:00 +16°C° 0.3 mm 2 mps 681 mmHg 61%
    16:00 +15°C° 0.3 mm 2 mps 681 mmHg 66%
    17:00 +13°C° 0.6 mm 2 mps 681 mmHg 75%
    18:00 +10°C° 0.6 mm 1 mps 681 mmHg 84%
    19:00 +8°C° 0.6 mm 1 mps 680 mmHg 93%
    20:00 +8°C° 0.3 mm 1 mps 681 mmHg 93%
    21:00 +7°C° 0.3 mm 2 mps 681 mmHg 93%
    22:00 +6°C° 0.3 mm 2 mps 682 mmHg 93%
    23:00 +6°C° 0.2 mm 2 mps 682 mmHg 93%

    2 April, Sunday

    Time Temperature Precipitation Wind Pressure Humidity
    00:00 +6°C° 0.2 mm 2 mps 682 mmHg 93%
    01:00 +6°C° 0.2 mm 2 mps 682 mmHg 94%
    02:00 +7°C° 0.2 mm 1 mps 682 mmHg 94%
    03:00 +6°C° 0.2 mm 1 mps 682 mmHg 94%
    04:00 +6°C° 0.2 mm 1 mps 682 mmHg 94%
    05:00 +7°C° 0.2 mm 1 mps 683 mmHg 91%
    06:00 +6°C° 0.2 mm 0 mps 683 mmHg 88%
    07:00 +7°C° 0.2 mm 0 mps 684 mmHg 85%
    08:00 +8°C° 0.1 mm 0 mps 684 mmHg 80%
    09:00 +11°C° 0.1 mm 1 mps 685 mmHg 75%
    10:00 +12°C° 0.1 mm 1 mps 685 mmHg 70%
    11:00 +13°C° 0.1 mm 1 mps 685 mmHg 69%
    12:00 +13°C° 0.1 mm 1 mps 685 mmHg 67%
    13:00 +14°C° 0.1 mm 1 mps 685 mmHg 66%
    14:00 +13°C° 0.3 mm 1 mps 685 mmHg 69%
    15:00 +13°C° 0.3 mm 1 mps 685 mmHg 73%
    16:00 +12°C° 0.3 mm 1 mps 685 mmHg 76%
    17:00 +11°C° 0.3 mm 1 mps 685 mmHg 82%
    18:00 +10°C° 0.3 mm 1 mps 685 mmHg 89%
    19:00 +9°C° 0.3 mm 1 mps 685 mmHg 95%
    20:00 +8°C° 0.4 mm 1 mps 685 mmHg 96%
    21:00 +7°C° 0.4 mm 0 mps 686 mmHg 96%
    22:00 +7°C° 0.4 mm 0 mps 686 mmHg 97%
    23:00 +7°C° 0.4 mm 0 mps 686 mmHg 97%

    3 April, Monday

    Time Temperature Precipitation Wind Pressure Humidity
    00:00 +7°C° 0.4 mm 0 mps 686 mmHg 97%
    01:00 +7°C° 0.4 mm 0 mps 686 mmHg 97%
    02:00 +8°C° 0.4 mm 1 mps 686 mmHg 97%
    03:00 +8°C° 0.4 mm 1 mps 686 mmHg 97%
    04:00 +8°C° 0.4 mm 1 mps 686 mmHg 97%
    05:00 +8°C° 0.7 mm 1 mps 686 mmHg 96%
    06:00 +8°C° 0.7 mm 1 mps 686 mmHg 96%
    07:00 +8°C° 0.7 mm 1 mps 686 mmHg 95%
    08:00 +9°C° 0.7 mm 1 mps 686 mmHg 93%
    09:00 +9°C° 0.7 mm 1 mps 686 mmHg 91%
    10:00 +10°C° 0.7 mm 1 mps 686 mmHg 89%
    11:00 +10°C° 0.6 mm 1 mps 686 mmHg 88%
    12:00 +10°C° 0.6 mm 1 mps 686 mmHg 87%
    13:00 +11°C° 0.6 mm 1 mps 685 mmHg 86%
    14:00 +11°C° 0.4 mm 1 mps 685 mmHg 87%
    15:00 +11°C° 0.4 mm 1 mps 685 mmHg 87%
    16:00 +11°C° 0.4 mm 1 mps 685 mmHg 88%
    17:00 +10°C° 0.5 mm 1 mps 685 mmHg 91%
    18:00 +9°C° 0.5 mm 1 mps 685 mmHg 94%
    19:00 +8°C° 0.5 mm 1 mps 685 mmHg 96%
    20:00 +8°C° 0.5 mm 1 mps 685 mmHg 97%
    21:00 +8°C° 0.5 mm 1 mps 685 mmHg 97%
    22:00 +7°C° 0.5 mm 1 mps 685 mmHg 97%
    23:00 +7°C° 0.3 mm 1 mps 685 mmHg 97%
    Show more